Location: Bonham
(33.5773°N, 96.1783°W)
Time: 22:39:41
(UTC+00:00)

Cosmos 1816 Rocket - Visible Passes

Search period start: 18 November 2025 00:00
Search period end: 28 November 2025 00:00
Orbit: 951 x 997 km, 82.9° (Epoch: 18 November)

Date Brightness Start Highest point End Pass type
(mag) Time Alt. Az. Time Alt. Az. Time Alt. Az.
18 Nov 5.5 11:12:25 10° SSE 11:18:27 48° E 11:24:31 10° NNE visible
18 Nov 6.6 23:58:31 10° NNW 00:03:49 30° W 00:09:03 10° SW visible
19 Nov 4.5 11:37:03 10° S 11:43:23 90° E 11:49:47 10° N visible
20 Nov 7.3 00:25:06 10° NW 00:28:28 15° W 00:31:50 10° WSW visible
20 Nov 6.8 10:19:07 10° SE 10:23:38 21° E 10:28:09 10° NE visible
20 Nov 4.7 12:02:24 10° SSW 12:08:30 49° W 12:14:38 10° N visible
21 Nov 5.8 10:42:34 10° SSE 10:48:22 40° E 10:54:13 10° NNE visible
21 Nov 5.4 12:28:36 10° SW 12:33:46 26° WNW 12:38:59 10° NNW visible
22 Nov 4.7 11:06:57 10° S 11:13:17 75° E 11:19:38 10° N visible
22 Nov 7.2 23:54:20 10° NW 23:58:27 19° W 00:02:33 10° SW visible
23 Nov 7.0 09:49:46 10° ESE 09:53:37 17° E 09:57:28 10° NE visible
23 Nov 4.5 11:32:05 10° SSW 11:38:19 59° W 11:44:36 10° N visible
24 Nov 6.1 10:12:47 10° SSE 10:18:19 33° E 10:23:52 10° NNE visible
24 Nov 5.2 11:58:01 10° SW 12:03:33 31° WNW 12:09:07 10° NNW visible
25 Nov 4.9 10:36:56 10° S 10:43:10 62° E 10:49:26 10° NNE visible
25 Nov 5.8 12:25:06 10° WSW 12:28:57 17° WNW 12:32:49 10° NW visible
26 Nov 7.1 09:20:39 10° ESE 09:23:37 14° E 09:26:34 10° NE visible
26 Nov 4.4 11:01:51 10° SSW 11:08:10 71° W 11:14:32 10° N visible
26 Nov 7.6 23:51:32 10° WNW 23:53:00 11° W 23:54:29 10° W visible
27 Nov 6.3 09:43:05 10° SE 09:48:16 27° E 09:53:27 10° NNE visible
27 Nov 4.9 11:27:31 10° SW 11:33:20 38° WNW 11:39:11 10° NNW visible
